FW4672 Weather Reports


Display with metric or nautical units.
time (UTC)temp
F
wind
direction
speed
MPH
gust
MPH
rain 1hr
in
rain 24hr
in
rain mn
in
humidity
%
barometer
mb
20260904205336 76 329 0.0 0.0 0.00 0.00 0.00 71 1031.8
20260904204333 75 337 0.0 0.0 0.00 0.00 0.00 71 1031.8
20260904203334 75 297 0.0 0.0 0.00 0.00 0.00 69 1031.7
20260904202335 76 326 0.0 0.0 0.00 0.00 0.00 70 1031.8
20260904200334 75 326 0.0 0.0 0.00 0.00 0.00 71 1032.0
20260904195334 75 307 0.0 0.0 0.00 0.00 0.00 72 1032.0
20260904194335 75 328 0.0 0.0 0.00 0.00 0.00 71 1032.1
20260904193433 75 333 0.0 0.0 0.00 0.00 0.00 70 1032.0
20260904192434 75 335 0.0 0.0 0.00 0.00 0.00 72 1032.3
20260904190532 75 330 0.0 0.0 0.00 0.00 0.00 70 1032.4
20260904184535 74 337 0.0 0.0 0.00 0.00 0.00 72 1032.6
20260904183535 73 336 0.0 0.0 0.00 0.00 0.00 72 1032.6
20260904182633 73 317 0.0 0.0 0.00 0.00 0.00 73 1032.7
20260904181635 73 331 0.0 0.0 0.00 0.00 0.00 70 1032.8
20260904180635 72 337 0.0 0.0 0.00 0.00 0.00 72 1032.7
20260904175633 72 337 0.0 0.0 0.00 0.00 0.00 72 1032.9
20260904174733 71 334 0.0 0.0 0.00 0.00 0.00 72 1032.8
20260904173733 71 331 0.0 0.0 0.00 0.00 0.00 73 1032.9
20260904172734 70 334 0.0 0.0 0.00 0.00 0.00 74 1032.8
20260904165834 69 334 0.0 0.0 0.00 0.00 0.00 75 1033.0
20260904164933 69 233 0.0 0.0 0.00 0.00 0.00 75 1032.8
20260904163934 69 284 0.0 0.0 0.00 0.00 0.00 75 1032.8
20260904162934 68 337 0.0 0.0 0.00 0.00 0.00 76 1032.6
20260904162033 68 336 0.0 0.0 0.00 0.00 0.00 76 1032.5
20260904161035 68 181 0.0 0.0 0.00 0.00 0.00 77 1032.6
20260904160133 68 277 0.0 0.0 0.00 0.00 0.00 76 1032.4
20260904155232 68 297 0.0 0.0 0.00 0.00 0.00 77 1032.3
20260904154233 68 330 0.0 0.0 0.00 0.00 0.00 76 1032.3
20260904152235 67 180 0.0 0.0 0.00 0.00 0.00 78 1032.2
20260904151234 67 180 0.0 0.0 0.00 0.00 0.00 79 1032.1
20260904150235 67 180 0.0 0.0 0.00 0.00 0.00 79 1032.1
20260904144238 66 180 0.0 0.0 0.00 0.00 0.00 80 1032.0
20260904143334 66 180 0.0 0.0 0.00 0.00 0.00 81 1032.0
20260904142335 65 180 0.0 0.0 0.00 0.00 0.00 82 1031.9
20260904141432 65 180 0.0 0.0 0.00 0.00 0.00 83 1031.8
20260904140435 64 180 0.0 0.0 0.00 0.00 0.00 84 1031.7
20260904135434 64 180 0.0 0.0 0.00 0.00 0.00 85 1031.7
20260904134433 63 180 0.0 0.0 0.00 0.00 0.00 85 1031.7
20260904133436 63 180 0.0 0.0 0.00 0.00 0.00 85 1031.5
20260904132436 63 180 0.0 0.0 0.00 0.00 0.00 85 1031.5
20260904130432 63 180 0.0 0.0 0.00 0.00 0.00 86 1031.4
20260904125435 63 180 0.0 0.0 0.00 0.00 0.00 86 1031.3
20260904122434 63 72 0.0 0.0 0.00 0.00 0.00 87 1031.2
20260904121434 63 67 0.0 0.0 0.00 0.00 0.00 88 1031.2
20260904120434 63 69 0.0 0.0 0.00 0.00 0.00 88 1031.2
20260904115533 63 67 0.0 0.0 0.00 0.00 0.00 89 1031.2
20260904113633 63 67 0.0 0.0 0.00 0.00 0.00 88 1031.4
20260904112633 64 67 0.0 0.0 0.00 0.00 0.00 88 1031.4
20260904111635 64 67 0.0 0.0 0.00 0.00 0.00 88 1031.3
20260904110634 64 73 0.0 0.0 0.00 0.00 0.00 88 1031.3
20260904105635 64 67 0.0 0.0 0.00 0.00 0.00 88 1031.6
20260904104633 64 67 0.0 0.0 0.00 0.00 0.00 88 1031.4
20260904102733 64 67 0.0 0.0 0.00 0.00 0.00 89 1031.2
20260904101734 64 67 0.0 0.0 0.00 0.00 0.00 89 1031.1
20260904100733 63 67 0.0 0.0 0.00 0.00 0.00 90 1031.1
20260904095736 63 67 0.0 0.0 0.00 0.00 0.00 91 1031.2
20260904094833 62 67 0.0 0.0 0.00 0.00 0.00 91 1031.3
20260904093933 62 67 0.0 0.0 0.00 0.00 0.00 91 1031.3
20260904092935 62 67 0.0 0.0 0.00 0.00 0.00 91 1031.2
20260904091933 62 67 0.0 0.0 0.00 0.00 0.00 91 1031.2
20260904091032 62 67 0.0 0.0 0.00 0.00 0.00 91 1031.2
20260904085034 63 67 0.0 0.0 0.00 0.00 0.00 91 1031.3
20260904083036 63 67 0.0 0.0 0.00 0.00 0.00 90 1031.4
20260904082034 63 67 0.0 0.0 0.00 0.00 0.00 90 1031.5
20260904081032 63 67 0.0 0.0 0.00 0.00 0.00 90 1031.5
20260904080039 63 67 0.0 0.0 0.00 0.00 0.00 89 1031.7
20260904075133 63 180 0.0 0.0 0.00 0.00 0.00 89 1031.7
20260904074135 64 180 0.0 0.0 0.00 0.00 0.00 88 1031.6
20260904073133 64 180 0.0 0.0 0.00 0.00 0.00 88 1031.5
20260904072136 64 180 0.0 0.0 0.00 0.00 0.00 88 1031.4
20260904071135 64 180 0.0 0.0 0.00 0.00 0.00 87 1031.6
20260904065230 65 157 0.0 0.0 0.00 0.00 0.00 86 1031.7
20260904064328 65 157 0.0 0.0 0.00 0.00 0.00 86 1031.6
20260904063330 65 157 0.0 0.0 0.00 0.00 0.00 86 1031.5
20260904061428 65 157 0.0 0.0 0.00 0.00 0.00 86 1031.5
20260904060429 65 157 0.0 0.0 0.00 0.00 0.00 85 1031.6
20260904054428 65 157 0.0 0.0 0.00 0.00 0.00 86 1031.5
20260904053430 65 292 0.0 0.0 0.00 0.00 0.00 86 1031.4
20260904052428 65 292 0.0 0.0 0.00 0.00 0.00 85 1031.5
20260904051527 65 180 0.0 0.0 0.00 0.00 0.00 85 1031.6
20260904050529 65 180 0.0 0.0 0.00 0.00 0.00 85 1031.5
20260904045531 65 180 0.0 0.0 0.00 0.00 0.00 85 1031.5
20260904044628 65 157 0.0 0.0 0.00 0.00 0.00 84 1031.5
20260904043629 66 157 0.0 0.0 0.00 0.00 0.00 84 1031.6
20260904042627 66 180 0.0 0.0 0.00 0.00 0.00 84 1031.6
20260904041629 66 180 0.0 0.0 0.00 0.00 0.00 83 1031.5
20260904040630 66 161 0.0 0.0 0.00 0.00 0.00 83 1031.5
20260904033730 67 163 0.0 0.0 0.00 0.00 0.00 82 1031.3
20260904032829 67 180 0.0 0.0 0.00 0.00 0.00 81 1031.2
20260904031829 67 180 0.0 0.0 0.00 0.00 0.00 81 1031.0
20260904030831 67 292 0.0 0.0 0.00 0.00 0.00 80 1030.9
20260904024929 68 180 0.0 0.0 0.00 0.00 0.00 80 1030.9
20260904023928 68 167 0.0 0.0 0.00 0.00 0.00 79 1030.9
20260904022930 68 180 0.0 0.0 0.00 0.00 0.00 78 1031.0
20260904021929 68 184 0.0 0.0 0.00 0.00 0.00 77 1031.0
20260904020028 69 180 0.0 0.0 0.00 0.00 0.00 76 1030.9
20260904015028 69 182 0.0 0.0 0.00 0.00 0.00 76 1030.8
20260904014031 70 180 0.0 0.0 0.00 0.00 0.00 76 1031.0
20260904013127 70 208 0.0 0.0 0.00 0.00 0.00 75 1030.9
20260904011129 71 196 0.0 0.0 0.00 0.00 0.00 75 1031.0
20260904010128 71 210 0.0 0.0 0.00 0.00 0.00 75 1031.0
20260904005130 72 275 0.0 0.0 0.00 0.00 0.00 74 1031.0
20260904004129 73 191 0.0 0.0 0.00 0.00 0.00 72 1030.8
20260904001327 74 179 0.0 0.0 0.00 0.00 0.00 70 1030.9
20260904000333 74 192 0.0 0.0 0.00 0.00 0.00 70 1031.0
20260903235329 74 184 0.0 0.0 0.00 0.00 0.00 70 1031.0
20260903234330 75 182 0.0 0.0 0.00 0.00 0.00 70 1031.0
20260903233330 76 183 0.0 0.0 0.00 0.00 0.00 68 1031.0
20260903232428 76 186 0.0 0.0 0.00 0.00 0.00 69 1031.0
20260903231429 76 223 0.0 0.0 0.00 0.00 0.00 69 1031.2
20260903230429 76 194 0.0 0.0 0.00 0.00 0.00 70 1031.2
20260903225527 76 208 0.0 0.0 0.00 0.00 0.00 71 1031.2
20260903224529 75 197 0.0 0.0 0.00 0.00 0.00 73 1031.2
20260903223628 75 186 0.0 0.0 0.00 0.00 0.00 74 1031.4
20260903222630 75 180 0.0 0.0 0.00 0.00 0.00 75 1031.5
20260903221631 75 182 0.0 0.0 0.00 0.00 0.00 76 1031.5
20260903220729 75 184 0.0 0.0 0.00 0.00 0.00 75 1031.6
20260903215730 76 189 0.0 0.0 0.00 0.00 0.00 74 1031.6
20260903214729 76 180 0.0 0.0 0.00 0.00 0.00 75 1031.6
20260903213828 76 174 0.0 0.0 0.00 0.00 0.00 74 1031.6
20260903212927 76 202 0.0 0.0 0.00 0.00 0.00 74 1031.7
20260903211932 76 189 0.0 0.0 0.00 0.00 0.00 74 1031.8